Regional Weather Roundup
Issued by NWS New Orleans/Baton Rouge, LA

Home | Current Version | Previous Version | Text Only | Print | Product List | Glossary Off
Versions: 1 2 3 4 5 6 7 8 9 10 11 12 13 14 15 16 17 18 19 20 21 22 23 24 25 26 27 28 29 30 31 32 33 34 35 36 37 38 39 40 41 42 43 44 45 46 47 48 49 50

855
ASUS44 KLIX 290701
RWRLIX
NEW ORLEANS REGIONAL WEATHER ROUNDUP
NATIONAL WEATHER SERVICE NEW ORLEANS LA
200 AM CDT FRI AUG 29 2014

NOTE: "FAIR" INDICATES FEW OR NO CLOUDS BELOW 12,000 FEET WITH NO
      SIGNIFICANT WEATHER AND/OR OBSTRUCTIONS TO VISIBILITY.
      SKY/WX - SKY CONDITION AND SIGNIFICANT WEATHER.
      TMP - AIR TEMPERATURE.     DP    - DEWPOINT TEMPERATURE.
      RH  - RELATIVE HUMIDITY.   PRES  - PRESSURE.
      HI  - HEAT INDEX.          WCI   - WIND CHILL INDEX.

*  THESE STATIONS ARE NOT NWS OR FAA STATIONS AND ARE NOT UNDER
   NWS QUALITY CONTROL.

LAZ038-040-048-061>063-065>067-069-290800-
SOUTHEAST LOUISIANA

CITY           SKY/WX    TMP DP  RH WIND       PRES   REMARKS
N.O. AUDUBON     N/A     79  76  91 MISG        N/A
N.O. INTL ARPT PTCLDY    81  73  76 CALM      29.95F
N.O. LAKEFRONT CLEAR     81  73  76 SE6       29.95F
N.O. DOWNTOWN*   N/A     82  70  65 SE3       29.95F
SLIDELL        CLEAR     73  71  93 CALM      29.95F
BATON ROUGE    PTCLDY    77  73  87 N3        29.95F
BOOTHVILLE     PTCLDY    81  76  84 SE3       29.94F
BELLE CHASSE   CLEAR     75  71  87 CALM      29.94F
BOGALUSA*        N/A     74  71  88 CALM      29.98F
GALLIANO*      NOT AVBL
NEW ROADS*       N/A     77  75  92 CALM      29.95F
GONZALES*        N/A     75  75 100 CALM      29.94F
HAMMOND*       NOT AVBL
HOUMA*         PTCLDY    75  71  87 CALM      29.94S
PORT FOURCHON* MOSUNNY   84  75  74 SE12      29.94F

$$

MSZ070-080>082-290800-
SOUTHERN MISSISSIPPI

CITY           SKY/WX    TMP DP  RH WIND       PRES   REMARKS
MCCOMB         PTCLDY    76  72  87 CALM      29.98F
GULFPORT       CLEAR     77  73  87 CALM      29.95F
BILOXI         PTCLDY    77  73  86 NE3       29.96F
PASCAGOULA     PTCLDY    71  70  96 CALM      29.97F FOG

$$

COASTAL OBSERVATIONS
LAKE AND NEARSHORE STATIONS

STATION/POSITION TIME  TEMP    WIND        PRES    WAVE
                       AIR SEA DIR/SP/G            HT/PER
                 (UTC) (F)     (DEG/KT/KT) (MB)    (FT/S)
PASCAGOULA       0600   83     120/  4/  5 1014.0
WAVELAND YACHT   0600   84     130/  6/  9 1013.8
GRAND ISLE       0600   84 84  120/  6/  9 1014.4
SOUTHWEST PASS   0600   84 89  120/ 13/ 15 1014.1
NEW CANAL        0600   81 84   90/  1/  2 1014.5
SHELL BEACH      0600   83 81  100/  5/  7 1014.0

OFFSHORE STATIONS

STATION/POSITION TIME  TEMP    WIND        PRES    WAVE
                       AIR SEA DIR/SP/G            HT/PER
                 (UTC) (F)     (DEG/KT/KT) (MB)    (FT/S)
64 S DAUPHIN ISL 0613   85 85  110/ 12/ 14 1014.1

$$




USA.gov is the U.S. government's official web portal to all federal, state and local government web resources and services.